Regional Weather Roundup
Issued by NWS

Home | Current Version | Previous Version | Text Only | Print | Product List | Glossary Off
Versions: 1 2 3 4 5 6 7 8 9 10 11 12 13 14 15 16 17 18 19 20 21 22 23 24 25 26 27 28 29 30 31 32 33 34 35 36 37 38 39 40 41 42 43 44 45 46 47 48 49 50

877
ASUS44 KLIX 222010
RWRLA
LOUISIANA WEATHER ROUNDUP
NATIONAL WEATHER SERVICE NEW ORLEANS LA
300 PM CDT TUE APR 22 2014

NOTE: "FAIR" INDICATES FEW OR NO CLOUDS BELOW 12,000 FEET WITH NO
      SIGNIFICANT WEATHER AND/OR OBSTRUCTIONS TO VISIBILITY.
      SKY/WX - SKY CONDITION AND SIGNIFICANT WEATHER.
      TMP - AIR TEMPERATURE.    DP   - DEWPOINT TEMPERATURE.
      RH  - RELATIVE HUMIDITY.  PRES - PRESSURE.
      HX  - HEAT INDEX.         WCI  - WIND CHILL INDEX.

*  THESE STATIONS ARE NOT NWS OR FAA STATIONS AND ARE NOT UNDER
   NWS QUALITY CONTROL.

LAZ040-048-061>063-065-066-069-222100-
SOUTHEAST LOUISIANA

CITY           SKY/WX    TMP DP  RH WIND       PRES   REMARKS
N.O. AUDUBON     N/A     71  67  87 MISG        N/A
N.O. INTL ARPT PTSUNNY   72  66  81 W12       29.93F
N.O. LAKEFRONT CLOUDY    70  66  87 W13       29.93F
N.O. DOWNTOWN* CLOUDY    73  61  64 SW5       29.94F
SLIDELL        PTSUNNY   77  65  66 VRB7      29.90F
BATON ROUGE    PTSUNNY   79  61  53 W9        29.92F
BOOTHVILLE     CLOUDY    71  66  84 SW13      29.94F
BELLE CHASSE   LGT RAIN  72  66  83 CALM      29.93F FOG
BOGALUSA*        N/A     78  61  55 NW7       29.91F
GALLIANO*      CLOUDY    76  65  70 SW7       29.94F
NEW ROADS*     FAIR      77  60  55 NW12G17   29.93F
GONZALES*      CLOUDY    78  65  63 W6        29.91F
HAMMOND*       MOSUNNY   79  59  50 W10       29.93F
HOUMA*         PTSUNNY   73  64  73 W12       29.96S
PORT FOURCHON* CLOUDY    73  66  78 W15       29.96F

$$

LAZ041-044-053-054-222100-
SOUTHWEST LOUISIANA

CITY           SKY/WX    TMP DP  RH WIND       PRES   REMARKS
LAKE CHARLES   MOSUNNY   83  60  45 CALM      29.93F
LAFAYETTE      PTSUNNY   79  62  56 N9        29.93F
PATTERSON      PTSUNNY   77  68  73 W10       29.97F
SALT POINT       N/A     74  68  81 VRB6      29.94F
NEW IBERIA     PTSUNNY   82  61  48 W13       29.93F
CHENAULT AIRPK MOSUNNY   81  61  50 NE5       29.94F

$$

LAZ027-028-222100-
CENTRAL LOUISIANA

CITY           SKY/WX    TMP DP  RH WIND       PRES   REMARKS
FORT POLK      SUNNY     79  59  50 NW5       29.95F
ALEXANDRIA INT MOSUNNY   79  61  53 NW7       29.93F
ALEXANDRIA     PTSUNNY   81  59  47 VRB6      29.94F

$$

LAZ001-002-222100-
NORTHWEST LOUISIANA

CITY           SKY/WX    TMP DP  RH WIND       PRES   REMARKS
SHREVEPORT     MOSUNNY   78  59  51 CALM      29.96F
BARKSDALE AFB  MOSUNNY   81  59  47 N7        29.96F
DTN SHREVEPORT SUNNY     79  60  52 CALM      29.96F

$$

LAZ014-016-222100-
NORTHEAST LOUISIANA

CITY           SKY/WX    TMP DP  RH WIND       PRES   REMARKS
MONROE         MOSUNNY   79  61  53 NE8       29.96F
TALLULAH       CLOUDY    77  61  57 N8        29.93F

$$




USA.gov is the U.S. government's official web portal to all federal, state and local government web resources and services.